Simultaneous Nadir Overpasses (SNOs) Predictions

Prediction of SNOs between GOES-15 and METOP-B Satellite Orbit:

Table of predicted SNOs for the next 14.0 days since TLE Epoch: 4/2/2022
Index Date Time (GOES-15) GOES-15 Lat,Lon METOP-B Lat,Lon Distance(km) Time Diff (sec)
1 04/02/2022 05:51:52 0.05,-128.37 0.74,-125.22 358.80 80
2 04/03/2022 18:08:06 -0.06,-128.42 0.22,-129.80 156.77 80
3 04/04/2022 17:50:06 -0.06,-128.42 -0.88,-124.80 413.03 80
4 04/06/2022 06:06:27 0.07,-128.39 -0.14,-129.39 113.71 80
5 04/07/2022 05:48:27 0.07,-128.40 0.96,-124.40 455.65 80
6 04/08/2022 18:04:39 -0.08,-128.43 0.05,-128.96 61.06 80
7 04/11/2022 06:03:00 0.09,-128.39 0.05,-128.56 19.51 80
8 04/13/2022 18:03:53 -0.10,-128.41 -0.16,-128.13 32.17 80
9 04/15/2022 06:20:13 0.11,-128.38 -0.84,-132.73 495.65 80
